Flag for United Arab Emirates Weather past 2 weeks in Abu Dhabi, Abu Dhabi, United Arab Emirates

Now
90 °F

Sunny.


Feels Like: 91 °F
Forecast: 75 / 90 °F
Wind: 2 mph from North

Location: Abu Dhabi Bateen Airport

Current Time: Oct 24, 2014 at 12:31:18 PM

Latest Report: Oct 24, 2014 at 12:00 PM


Visibility: 10 mi

Pressure: 29.89 "Hg

Humidity: 43%

Dew point: 64 °F

Location of Abu DhabiLocation

Historic Weather in Abu Dhabi — Graph

°F

Abu Dhabi temperature yesterday

Maximum temperature yesterday: 91 °F (at 11:00 AM)
Minimum temperature yesterday: 82 °F (at 6:00 AM)
Average temperature yesterday: 87 °F

Past Weeks' High & Low Weather Summary

 TemperatureHumidityPressure
High104 °F (Oct 14, 1:00 PM)84% (Oct 10, 4:00 AM)30.01 "Hg (Oct 10, 4:00 AM)
Low77 °F (Oct 21, 7:00 AM)11% (Oct 21, 2:00 PM)29.56 "Hg (Oct 11, 1:00 PM)
Average88 °F55%29.87 "Hg
* Reported Oct 9 11:00 AM — Oct 24 11:00 AM, Abu Dhabi, Weather by CustomWeather, © 2014

Note: Actual official high and low records may vary slightly from our data, if they occured in-between our weather recording intervals... More about our weather records

Advertising

Abu Dhabi weather history for previous 24 hours

 ConditionsComfort  
Time TempWeatherWind HumidityBarometerVisibility
11:00 AM
Oct 24
86 °FPassing clouds.6 mph52%29.92 "HgN/A
10:00 AMN/A7 mphN/AN/AN/A
9:00 AM81 °FPassing clouds.5 mph62%29.92 "HgN/A
8:00 AM77 °FPassing clouds.5 mph69%29.92 "HgN/A
7:00 AM77 °FPassing clouds.5 mph69%29.89 "HgN/A
6:00 AM79 °FPassing clouds.3 mph70%29.86 "HgN/A
5:00 AM79 °FClear.5 mph70%29.86 "Hg10 mi
4:00 AM79 °FClear.2 mph74%29.86 "Hg10 mi
3:00 AM81 °FPassing clouds.2 mph66%29.86 "HgN/A
2:00 AM82 °FPassing clouds.No wind58%29.89 "HgN/A
1:00 AM84 °FPassing clouds.2 mph51%29.89 "HgN/A
12:00 AM84 °FPassing clouds.6 mph51%29.89 "HgN/A
11:00 PM
Oct 23
84 °FPassing clouds.5 mph55%29.92 "HgN/A
10:00 PM84 °FPassing clouds.6 mph55%29.92 "HgN/A
9:00 PM84 °FPassing clouds.9 mph55%29.92 "HgN/A
8:00 PM84 °FPassing clouds.10 mph51%29.92 "HgN/A
7:00 PM86 °FPassing clouds.13 mph52%29.92 "HgN/A
6:00 PM86 °FPassing clouds.12 mph52%29.89 "HgN/A
5:00 PM88 °FPassing clouds.16 mph49%29.89 "HgN/A
4:00 PM90 °FPassing clouds.18 mph43%29.89 "HgN/A
3:00 PM91 °FPassing clouds.16 mph41%29.89 "HgN/A
2:00 PM91 °FPassing clouds.16 mph41%29.92 "HgN/A
1:00 PM91 °FSunny.18 mph44%29.95 "Hg10 mi
12:00 PM91 °FSunny.15 mph38%29.98 "Hg10 mi
Weather by CustomWeather, © 2014

See weather overviewHow to use our weather pages